Pasco, WA
on Monday, November 19, 2012

Monday
Previous Day Next Day
Daily Summary
 ActualAverageRecord
Temperature
Mean Temperature °F 40°F  
Max Temperature 66°F 48°F 66°F (2012)
Min Temperature 51°F 32°F 18°F (2000)
Degree Days
Heating Degree Days 6 25  
Month to date heating degree days 372 413  
Since 1 July heating degree days 816 931  
Cooling Degree Days 0 0  
Month to date cooling degree days 0 0  
Year to date cooling degree days 788 710  
Growing Degree Days8 (Base °F )  
Moisture
Dew Point 40°F   
Average Humidity 62    
Maximum Humidity 89    
Minimum Humidity 34    
Precipitation
Precipitation 0.12 in 0.04 in 1.33 in (1996)
Month to date precipitation 0.50 0.64  
Year to date precipitation 7.96 7.17  
Snow
Snow 0.00 in in in ()
Snow Depth 0.00 in   
Wind
Wind Speed 16 mph   
Max Wind Speed 33 mph   
Max Gust Speed 44 mph   
Visibility 10 miles   
Events Rain   

Key: T is trace of precipitation, MM is missing value
Source: NWS Daily Summary
Time(PST)TemperatureDew PointHumidity Pressure Visibility Wind DirectionWind SpeedGust SpeedPrecipitationEvents Conditions
12:53 AM 54.0°F 37.0°F 53% 29.78 in 10.0 miles SSE 12.7 mph - N/A   Overcast
1:53 AM 55.0°F 37.0°F 51% 29.78 in 10.0 miles SSE 12.7 mph - N/A   Overcast
2:53 AM 54.0°F 37.0°F 53% 29.77 in 10.0 miles SSE 13.8 mph - N/A   Overcast
3:53 AM 54.0°F 37.0°F 53% 29.75 in 10.0 miles SE 10.4 mph - N/A   Overcast
4:53 AM 55.0°F 37.0°F 51% 29.74 in 10.0 miles SSE 13.8 mph - N/A   Overcast
5:53 AM 57.0°F 36.0°F 45% 29.73 in 10.0 miles SSE 16.1 mph - N/A   Mostly Cloudy
6:53 AM 57.9°F 35.1°F 42% 29.70 in 10.0 miles South 23.0 mph 33.4 mph N/A   Partly Cloudy
7:53 AM 59.0°F 35.1°F 41% 29.73 in 10.0 miles South 19.6 mph 32.2 mph N/A   Partly Cloudy
8:53 AM 60.1°F 35.1°F 39% 29.72 in 10.0 miles South 21.9 mph 27.6 mph N/A   Mostly Cloudy
9:53 AM 61.0°F 36.0°F 39% 29.72 in 10.0 miles South 26.5 mph 38.0 mph N/A   Overcast
10:53 AM 63.0°F 36.0°F 37% 29.70 in 10.0 miles SSE 26.5 mph 35.7 mph N/A   Overcast
11:53 AM 63.0°F 36.0°F 37% 29.65 in 10.0 miles SSE 31.1 mph 43.7 mph N/A   Scattered Clouds
12:53 PM 64.0°F 36.0°F 35% 29.63 in 10.0 miles SSE 21.9 mph 34.5 mph N/A   Overcast
1:53 PM 64.0°F 37.0°F 37% 29.62 in 10.0 miles SSE 25.3 mph 33.4 mph N/A   Mostly Cloudy
2:53 PM 64.9°F 37.0°F 36% 29.60 in 10.0 miles SSE 25.3 mph 34.5 mph N/A   Overcast
3:53 PM 64.9°F 37.9°F 37% 29.60 in 10.0 miles SSE 19.6 mph 27.6 mph N/A   Overcast
4:53 PM 64.9°F 37.9°F 37% 29.59 in 10.0 miles SSE 19.6 mph 28.8 mph N/A   Overcast
5:53 PM 64.0°F 41.0°F 43% 29.62 in 10.0 miles South 11.5 mph - 0.00 in Rain Light Rain
6:38 PM 60.8°F 44.6°F 55% 29.68 in 10.0 miles West 16.1 mph 20.7 mph 0.00 in Rain Light Rain
6:53 PM 59.0°F 46.9°F 64% 29.68 in 10.0 miles West 11.5 mph - 0.00 in Rain Light Rain
7:53 PM 54.0°F 48.0°F 80% 29.70 in 10.0 miles Calm Calm - 0.00 in Rain Light Rain
8:53 PM 54.0°F 48.9°F 83% 29.74 in 10.0 miles Calm Calm - 0.02 in Rain Light Rain
9:53 PM 52.0°F 48.9°F 89% 29.76 in 10.0 miles WSW 3.5 mph - 0.07 in Rain Light Rain
10:53 PM 51.1°F 46.9°F 86% 29.78 in 10.0 miles SSW 10.4 mph - 0.02 in Rain Light Rain
11:53 PM 52.0°F 48.0°F 86% 29.81 in 10.0 miles South 21.9 mph - 0.01 in Rain Light Rain
Moon Phase
Nov. 19 Nov. 20 Nov. 28 Dec. 06 Dec. 13
Sunrise:07:04 AM (PST) Moon Rise:12:01 PM (PST)11/19
Sunset:04:19 PM (PST) Moon Set:11:01 PM (PST)11/19

Copyright © 2014 The Weather Underground, Inc.